Location: Atbuku
(36.4936°N, 30.4362°E)
Time: 09:15:33
(UTC+00:00)

IRS-P3 - Pass Details

Date: 19 March 2026
Orbit: 810 x 816 km, 99.0° (Epoch: 20 April)

Event Time Altitude Azimuth Distance (km) Brightness Sun altitude
Rises 16:54:20 0° 186° (S) 3,326 7.3 -9.9°
Reaches altitude 10° 16:56:50 10° 195° (SSW) 2,398 6.7 -10.4°
Maximum altitude 17:01:42 37° 261° (W) 1,251 5.8 -11.4°
Drops below altitude 10° 17:06:37 10° 329° (NNW) 2,411 7.2 -12.4°
Sets 17:09:09 0° 337° (NNW) 3,346 7.8 -12.9°
